Location: Newark
(45.6439°N, 0.5436°E)
Time: 06:23:11
(UTC+00:00)

N. Korean satellite - Pass Details

Date: 23 November 2019
Orbit: 456 x 506 km, 97.2° (Epoch: 05 December)

Event Time Altitude Azimuth Distance (km) Brightness Sun altitude
Rises 18:10:42 0° 214° (SSW) 2,574 10.9 -18.9°
Reaches altitude 10° 18:13:52 10° 244° (WSW) 1,707 10.4 -19.5°
Maximum altitude 18:15:28 12° 271° (W) 1,566 10.2 -19.8°
Drops below altitude 10° 18:17:05 10° 297° (WNW) 1,721 10.1 -20.0°
Sets 18:20:19 0° 327° (NNW) 2,618 10.6 -20.6°
